Time,TemperatureF,DewpointF,PressureIn,WindDirection,WindDirectionDegrees,WindSpeedMPH,WindSpeedGustMPH,Humidity,HourlyPrecipIn,Conditions,Clouds,dailyrainin,SoftwareType,DateUTC
2013-07-18 00:01:00,72.1,70.9,30.12,SSW,209,0.0,-999.0,96,-99.99,,,0.07,meteohub,2013-07-18 04:01:00,
2013-07-18 00:02:00,72.1,70.9,30.12,SSW,209,0.0,-999.0,96,-99.99,,,0.07,meteohub,2013-07-18 04:02:00,
2013-07-18 00:07:00,72.0,70.5,30.12,SSW,209,0.0,-999.0,95,-99.99,,,0.07,meteohub,2013-07-18 04:07:00,
2013-07-18 00:12:00,72.0,70.5,30.12,SSW,209,0.0,-999.0,95,-99.99,,,0.07,meteohub,2013-07-18 04:12:00,
2013-07-18 00:17:00,71.8,70.5,30.12,SSW,209,0.0,-999.0,96,-99.99,,,0.07,meteohub,2013-07-18 04:17:00,
2013-07-18 00:22:00,71.8,70.5,30.12,SSW,209,0.0,-999.0,96,-99.99,,,0.07,meteohub,2013-07-18 04:22:00,
2013-07-18 00:27:00,71.4,70.2,30.12,SSW,209,0.0,-999.0,96,-99.99,,,0.07,meteohub,2013-07-18 04:27:00,
2013-07-18 00:32:00,71.4,70.2,30.12,SSW,209,0.0,-999.0,96,-99.99,,,0.07,meteohub,2013-07-18 04:32:00,
2013-07-18 00:37:00,71.4,70.2,30.12,SSW,209,0.0,-999.0,96,-99.99,,,0.07,meteohub,2013-07-18 04:37:00,
2013-07-18 00:42:00,71.4,70.2,30.12,SSW,209,0.0,-999.0,96,-99.99,,,0.07,meteohub,2013-07-18 04:42:00,
2013-07-18 00:47:00,71.2,70.0,30.12,SSW,209,0.0,-999.0,96,-99.99,,,0.07,meteohub,2013-07-18 04:47:00,
2013-07-18 00:52:00,71.2,70.0,30.12,SSW,209,0.0,-999.0,96,-99.99,,,0.07,meteohub,2013-07-18 04:52:00,
2013-07-18 00:57:00,71.1,69.8,30.13,SSW,209,0.0,-999.0,96,-99.99,,,0.07,meteohub,2013-07-18 04:57:00,
2013-07-18 01:02:00,71.1,69.8,30.12,SSW,209,0.0,-999.0,96,-99.99,,,0.07,meteohub,2013-07-18 05:02:00,
2013-07-18 01:07:00,71.1,69.8,30.13,SSW,209,0.0,-999.0,96,-99.99,,,0.07,meteohub,2013-07-18 05:07:00,
2013-07-18 01:12:00,71.1,69.8,30.12,SSW,209,0.0,-999.0,96,-99.99,,,0.07,meteohub,2013-07-18 05:12:00,
2013-07-18 01:17:00,71.1,69.8,30.12,SSW,209,0.0,-999.0,96,-99.99,,,0.07,meteohub,2013-07-18 05:17:00,
2013-07-18 01:22:00,70.9,69.6,30.12,SSW,209,0.0,-999.0,96,-99.99,,,0.07,meteohub,2013-07-18 05:22:00,
2013-07-18 01:27:00,70.9,69.6,30.12,SSW,209,0.0,-999.0,96,-99.99,,,0.00,meteohub,2013-07-18 05:27:00,
2013-07-18 01:32:00,70.9,69.6,30.12,SSW,209,0.0,-999.0,96,-99.99,,,0.00,meteohub,2013-07-18 05:32:00,
2013-07-18 01:37:00,70.9,69.6,30.12,SSW,209,0.0,-999.0,96,-99.99,,,0.00,meteohub,2013-07-18 05:37:00,
2013-07-18 01:42:00,70.7,69.4,30.12,SSW,209,0.0,-999.0,96,-99.99,,,0.00,meteohub,2013-07-18 05:42:00,
2013-07-18 01:47:00,70.5,69.3,30.12,SSW,209,0.0,-999.0,96,-99.99,,,0.00,meteohub,2013-07-18 05:47:00,
2013-07-18 01:52:00,70.5,69.6,30.12,SSW,209,0.0,-999.0,97,-99.99,,,0.00,meteohub,2013-07-18 05:52:00,
2013-07-18 01:57:00,70.5,69.6,30.12,SSW,209,0.0,-999.0,97,-99.99,,,0.00,meteohub,2013-07-18 05:57:00,
2013-07-18 02:02:00,70.9,70.0,30.12,SSW,209,0.0,-999.0,97,-99.99,,,0.00,meteohub,2013-07-18 06:02:00,
2013-07-18 02:07:00,71.1,70.2,30.12,SSW,209,0.0,-999.0,97,-99.99,,,0.00,meteohub,2013-07-18 06:07:00,
2013-07-18 02:12:00,71.1,70.2,30.11,SSW,209,0.0,-999.0,97,-99.99,,,0.00,meteohub,2013-07-18 06:12:00,
2013-07-18 02:17:00,70.9,70.0,30.11,SSW,209,0.0,-999.0,97,-99.99,,,0.00,meteohub,2013-07-18 06:17:00,
2013-07-18 02:22:00,70.7,69.8,30.11,SSW,209,0.0,-999.0,97,-99.99,,,0.00,meteohub,2013-07-18 06:22:00,
2013-07-18 02:27:00,70.5,69.6,30.11,SSW,209,0.0,-999.0,97,-99.99,,,0.00,meteohub,2013-07-18 06:27:00,
2013-07-18 02:32:00,70.5,69.6,30.11,SSW,209,0.0,-999.0,97,-99.99,,,0.00,meteohub,2013-07-18 06:32:00,
2013-07-18 02:37:00,70.3,69.4,30.11,SSW,209,0.0,-999.0,97,-99.99,,,0.00,meteohub,2013-07-18 06:37:00,
2013-07-18 02:42:00,70.5,69.6,30.10,SSW,209,0.0,-999.0,97,-99.99,,,0.00,meteohub,2013-07-18 06:42:00,
2013-07-18 02:47:00,70.5,69.6,30.10,SSW,209,0.0,-999.0,97,-99.99,,,0.00,meteohub,2013-07-18 06:47:00,
2013-07-18 02:52:00,70.7,69.8,30.10,SSW,209,0.0,-999.0,97,-99.99,,,0.00,meteohub,2013-07-18 06:52:00,
2013-07-18 02:57:00,70.7,69.8,30.09,SSW,209,0.0,-999.0,97,-99.99,,,0.00,meteohub,2013-07-18 06:57:00,
2013-07-18 03:02:00,70.9,70.0,30.09,SSW,209,0.0,-999.0,97,-99.99,,,0.00,meteohub,2013-07-18 07:02:00,
2013-07-18 03:07:00,70.9,70.0,30.09,SSW,209,0.0,-999.0,97,-99.99,,,0.00,meteohub,2013-07-18 07:07:00,
2013-07-18 03:12:00,70.7,69.8,30.09,SSW,209,0.0,-999.0,97,-99.99,,,0.00,meteohub,2013-07-18 07:12:00,
2013-07-18 03:17:00,70.5,69.6,30.09,SSW,209,0.0,-999.0,97,-99.99,,,0.00,meteohub,2013-07-18 07:17:00,
2013-07-18 03:22:00,70.2,69.3,30.09,SSW,209,0.0,-999.0,97,-99.99,,,0.00,meteohub,2013-07-18 07:22:00,
2013-07-18 03:27:00,70.0,69.1,30.09,SSW,209,0.0,-999.0,97,-99.99,,,0.00,meteohub,2013-07-18 07:27:00,
2013-07-18 03:32:00,69.8,68.9,30.09,SSW,209,0.0,-999.0,97,-99.99,,,0.00,meteohub,2013-07-18 07:32:00,
2013-07-18 03:37:00,69.6,68.7,30.09,SSW,209,0.0,-999.0,97,-99.99,,,0.00,meteohub,2013-07-18 07:37:00,
2013-07-18 03:42:00,69.4,68.5,30.09,SSW,209,0.0,-999.0,97,-99.99,,,0.00,meteohub,2013-07-18 07:42:00,
2013-07-18 03:47:00,69.3,68.4,30.09,SSW,209,0.0,-999.0,97,-99.99,,,0.00,meteohub,2013-07-18 07:47:00,
2013-07-18 03:52:00,69.1,68.2,30.09,SSW,209,0.0,-999.0,97,-99.99,,,0.00,meteohub,2013-07-18 07:52:00,
2013-07-18 03:57:00,68.9,68.0,30.09,SSW,209,0.0,-999.0,97,-99.99,,,0.00,meteohub,2013-07-18 07:57:00,
2013-07-18 04:02:00,68.7,67.8,30.09,SSW,209,0.0,-999.0,97,-99.99,,,0.00,meteohub,2013-07-18 08:02:00,
2013-07-18 04:07:00,68.7,67.8,30.09,SSW,209,0.0,-999.0,97,-99.99,,,0.00,meteohub,2013-07-18 08:07:00,
2013-07-18 04:12:00,68.7,67.8,30.09,SSW,209,0.0,-999.0,97,-99.99,,,0.00,meteohub,2013-07-18 08:12:00,
2013-07-18 04:17:00,68.5,67.6,30.09,SSW,209,0.0,-999.0,97,-99.99,,,0.00,meteohub,2013-07-18 08:17:00,
2013-07-18 04:22:00,68.5,67.6,30.09,SSW,209,0.0,-999.0,97,-99.99,,,0.00,meteohub,2013-07-18 08:22:00,
2013-07-18 04:27:00,68.4,67.5,30.09,SSW,209,0.0,-999.0,97,-99.99,,,0.00,meteohub,2013-07-18 08:27:00,
2013-07-18 04:32:00,68.5,67.6,30.09,SSW,209,0.0,-999.0,97,-99.99,,,0.00,meteohub,2013-07-18 08:32:00,
2013-07-18 04:37:00,68.5,68.0,30.09,SSW,209,0.0,-999.0,98,-99.99,,,0.00,meteohub,2013-07-18 08:37:00,
2013-07-18 04:42:00,68.7,67.8,30.09,SSW,209,0.0,-999.0,97,-99.99,,,0.00,meteohub,2013-07-18 08:42:00,
2013-07-18 04:47:00,68.7,68.2,30.09,SSW,209,0.0,-999.0,98,-99.99,,,0.00,meteohub,2013-07-18 08:47:00,
2013-07-18 04:52:00,68.5,67.6,30.09,SSW,209,0.0,-999.0,97,-99.99,,,0.00,meteohub,2013-07-18 08:52:00,
2013-07-18 04:59:00,68.5,67.6,30.09,SSW,209,0.0,-999.0,97,-99.99,,,0.00,meteohub,2013-07-18 08:59:00,
2013-07-18 05:04:00,68.4,67.5,30.09,SSW,209,0.0,-999.0,97,-99.99,,,0.00,meteohub,2013-07-18 09:04:00,
2013-07-18 05:09:00,68.4,67.5,30.10,SSW,209,0.0,-999.0,97,-99.99,,,0.00,meteohub,2013-07-18 09:09:00,
2013-07-18 05:14:00,68.4,67.5,30.10,SSW,209,0.0,-999.0,97,-99.99,,,0.00,meteohub,2013-07-18 09:14:00,
2013-07-18 05:19:00,68.2,67.3,30.10,SSW,209,0.0,-999.0,97,-99.99,,,0.00,meteohub,2013-07-18 09:19:00,
2013-07-18 05:24:00,68.2,67.3,30.11,SSW,209,0.0,-999.0,97,-99.99,,,0.00,meteohub,2013-07-18 09:24:00,
2013-07-18 05:29:00,68.0,67.1,30.11,SSW,209,0.0,-999.0,97,-99.99,,,0.00,meteohub,2013-07-18 09:29:00,
2013-07-18 05:34:00,68.0,67.1,30.11,SSW,209,0.0,-999.0,97,-99.99,,,0.00,meteohub,2013-07-18 09:34:00,
2013-07-18 05:39:00,67.8,66.9,30.11,SSW,209,0.0,-999.0,97,-99.99,,,0.00,meteohub,2013-07-18 09:39:00,
2013-07-18 05:44:00,67.8,67.3,30.11,SSW,209,0.0,-999.0,98,-99.99,,,0.00,meteohub,2013-07-18 09:44:00,
2013-07-18 05:49:00,68.0,67.5,30.11,SSW,209,0.0,-999.0,98,-99.99,,,0.00,meteohub,2013-07-18 09:49:00,
2013-07-18 05:54:00,68.2,67.6,30.12,SSW,209,0.0,-999.0,98,-99.99,,,0.00,meteohub,2013-07-18 09:54:00,
2013-07-18 05:59:00,68.2,67.6,30.11,SSW,209,0.0,-999.0,98,-99.99,,,0.00,meteohub,2013-07-18 09:59:00,
2013-07-18 06:04:00,68.4,67.8,30.12,SSW,209,0.0,-999.0,98,-99.99,,,0.00,meteohub,2013-07-18 10:04:00,
2013-07-18 06:09:00,68.5,68.0,30.11,SSW,209,0.0,-999.0,98,-99.99,,,0.00,meteohub,2013-07-18 10:09:00,
2013-07-18 06:14:00,68.7,68.2,30.12,SSW,209,0.0,-999.0,98,-99.99,,,0.00,meteohub,2013-07-18 10:14:00,
2013-07-18 06:19:00,68.7,68.2,30.12,SSW,209,0.0,-999.0,98,-99.99,,,0.00,meteohub,2013-07-18 10:19:00,
2013-07-18 06:24:00,68.9,68.4,30.12,SSW,209,0.0,-999.0,98,-99.99,,,0.00,meteohub,2013-07-18 10:24:00,
2013-07-18 06:29:00,69.1,68.5,30.12,SSW,209,0.0,-999.0,98,-99.99,,,0.00,meteohub,2013-07-18 10:29:00,
2013-07-18 06:34:00,69.1,68.5,30.12,SSW,209,0.0,-999.0,98,-99.99,,,0.00,meteohub,2013-07-18 10:34:00,
2013-07-18 06:39:00,68.9,68.4,30.12,SSW,209,0.0,-999.0,98,-99.99,,,0.00,meteohub,2013-07-18 10:39:00,
2013-07-18 06:44:00,68.7,68.2,30.13,SSW,209,0.0,-999.0,98,-99.99,,,0.00,meteohub,2013-07-18 10:44:00,
2013-07-18 06:49:00,69.1,68.5,30.12,SSW,209,0.0,-999.0,98,-99.99,,,0.00,meteohub,2013-07-18 10:49:00,
2013-07-18 06:54:00,69.1,68.5,30.12,SSW,209,0.0,-999.0,98,-99.99,,,0.00,meteohub,2013-07-18 10:54:00,
2013-07-18 06:59:00,69.3,68.7,30.12,SSW,209,0.0,-999.0,98,-99.99,,,0.00,meteohub,2013-07-18 10:59:00,
2013-07-18 07:04:00,69.6,69.1,30.12,SSW,209,0.0,-999.0,98,-99.99,,,0.00,meteohub,2013-07-18 11:04:00,
2013-07-18 07:09:00,70.2,69.6,30.12,SSE,167,0.0,-999.0,98,-99.99,,,0.00,meteohub,2013-07-18 11:09:00,
2013-07-18 07:14:00,70.9,70.3,30.12,SSE,167,0.0,-999.0,98,-99.99,,,0.00,meteohub,2013-07-18 11:14:00,
2013-07-18 07:19:00,71.4,70.9,30.12,SSE,167,0.0,-999.0,98,-99.99,,,0.00,meteohub,2013-07-18 11:19:00,
2013-07-18 07:24:00,72.3,72.0,30.12,SSE,167,0.0,-999.0,99,-99.99,,,0.00,meteohub,2013-07-18 11:24:00,
2013-07-18 07:29:00,72.9,72.3,30.11,SSE,167,0.0,-999.0,98,-99.99,,,0.00,meteohub,2013-07-18 11:29:00,
2013-07-18 07:34:00,73.6,73.0,30.11,SSE,167,0.0,-999.0,98,-99.99,,,0.00,meteohub,2013-07-18 11:34:00,
2013-07-18 07:39:00,74.5,73.9,30.11,SSE,167,0.0,-999.0,98,-99.99,,,0.00,meteohub,2013-07-18 11:39:00,
2013-07-18 07:44:00,75.0,74.7,30.12,SSE,168,0.0,-999.0,99,-99.99,,,0.00,meteohub,2013-07-18 11:44:00,
2013-07-18 07:49:00,75.7,75.2,30.12,SSE,168,0.0,-999.0,98,-99.99,,,0.00,meteohub,2013-07-18 11:49:00,
2013-07-18 07:54:00,76.6,76.1,30.12,SSE,167,0.0,-999.0,98,-99.99,,,0.00,meteohub,2013-07-18 11:54:00,
2013-07-18 07:59:00,76.6,75.7,30.11,SSE,167,0.0,-999.0,97,-99.99,,,0.00,meteohub,2013-07-18 11:59:00,
2013-07-18 08:04:00,77.4,76.5,30.11,SSE,168,0.0,-999.0,97,-99.99,,,0.00,meteohub,2013-07-18 12:04:00,
2013-07-18 08:09:00,77.7,76.5,30.12,SSE,168,0.0,-999.0,96,-99.99,,,0.00,meteohub,2013-07-18 12:09:00,
2013-07-18 08:14:00,78.4,76.8,30.12,SSE,168,0.0,-999.0,95,-99.99,,,0.00,meteohub,2013-07-18 12:14:00,
2013-07-18 08:19:00,79.0,76.8,30.12,SSE,168,0.0,-999.0,93,-99.99,,,0.00,meteohub,2013-07-18 12:19:00,
2013-07-18 08:24:00,79.5,76.6,30.11,SSE,167,0.0,-999.0,91,-99.99,,,0.00,meteohub,2013-07-18 12:24:00,
2013-07-18 08:29:00,80.2,76.6,30.12,SSE,167,0.0,-999.0,89,-99.99,,,0.00,meteohub,2013-07-18 12:29:00,
2013-07-18 08:34:00,81.0,77.0,30.12,SSE,168,0.0,-999.0,88,-99.99,,,0.00,meteohub,2013-07-18 12:34:00,
2013-07-18 08:39:00,81.3,76.5,30.12,SSE,168,0.0,-999.0,85,-99.99,,,0.00,meteohub,2013-07-18 12:39:00,
2013-07-18 08:44:00,81.9,76.8,30.12,SSE,167,0.0,-999.0,85,-99.99,,,0.00,meteohub,2013-07-18 12:44:00,
2013-07-18 08:49:00,82.4,76.6,30.12,SSE,167,0.0,-999.0,83,-99.99,,,0.00,meteohub,2013-07-18 12:49:00,
2013-07-18 08:54:00,82.9,76.8,30.12,East,97,0.0,-999.0,82,-99.99,,,0.00,meteohub,2013-07-18 12:54:00,
2013-07-18 08:59:00,83.1,75.9,30.12,East,97,0.0,-999.0,79,-99.99,,,0.00,meteohub,2013-07-18 12:59:00,
2013-07-18 09:04:00,83.5,75.9,30.12,East,97,0.0,-999.0,78,-99.99,,,0.00,meteohub,2013-07-18 13:04:00,
2013-07-18 09:09:00,83.8,76.6,30.12,East,97,0.0,-999.0,79,-99.99,,,0.00,meteohub,2013-07-18 13:09:00,
2013-07-18 09:15:00,84.0,75.6,30.12,East,97,0.0,-999.0,76,-99.99,,,0.00,meteohub,2013-07-18 13:15:00,
2013-07-18 09:19:00,84.2,75.0,30.12,East,97,0.0,-999.0,74,-99.99,,,0.00,meteohub,2013-07-18 13:19:00,
2013-07-18 09:24:00,84.6,74.1,30.12,East,97,0.0,-999.0,71,-99.99,,,0.00,meteohub,2013-07-18 13:24:00,
2013-07-18 09:29:00,85.3,75.6,30.12,East,97,0.0,-999.0,73,-99.99,,,0.00,meteohub,2013-07-18 13:29:00,
2013-07-18 09:35:00,85.6,75.6,30.12,East,97,0.0,-999.0,72,-99.99,,,0.00,meteohub,2013-07-18 13:35:00,
2013-07-18 09:40:00,86.0,75.0,30.12,East,97,0.0,-999.0,70,-99.99,,,0.00,meteohub,2013-07-18 13:40:00,
2013-07-18 09:45:00,86.2,74.8,30.12,SW,229,0.0,-999.0,69,-99.99,,,0.00,meteohub,2013-07-18 13:45:00,
2013-07-18 09:50:00,85.8,74.5,30.12,SW,229,0.0,-999.0,69,-99.99,,,0.00,meteohub,2013-07-18 13:50:00,
2013-07-18 09:55:00,86.2,75.2,30.12,ENE,76,0.0,-999.0,70,-99.99,,,0.00,meteohub,2013-07-18 13:55:00,
2013-07-18 10:00:00,86.5,74.3,30.12,ENE,76,0.0,-999.0,67,-99.99,,,0.00,meteohub,2013-07-18 14:00:00,
2013-07-18 10:05:00,87.1,74.3,30.12,ENE,76,0.0,-999.0,66,-99.99,,,0.00,meteohub,2013-07-18 14:05:00,
2013-07-18 10:10:00,87.4,74.3,30.12,East,96,0.0,-999.0,65,-99.99,,,0.00,meteohub,2013-07-18 14:10:00,
2013-07-18 10:15:00,87.4,73.8,30.12,SE,128,0.0,-999.0,64,-99.99,,,0.00,meteohub,2013-07-18 14:15:00,
2013-07-18 10:20:00,87.4,73.8,30.12,SE,128,0.0,-999.0,64,-99.99,,,0.00,meteohub,2013-07-18 14:20:00,
2013-07-18 10:25:00,87.6,73.0,30.12,SW,217,0.0,-999.0,62,-99.99,,,0.00,meteohub,2013-07-18 14:25:00,
2013-07-18 10:30:00,88.0,72.9,30.12,West,261,1.0,-999.0,61,-99.99,,,0.00,meteohub,2013-07-18 14:30:00,
2013-07-18 10:35:00,88.0,73.8,30.12,SSW,212,2.0,-999.0,63,-99.99,,,0.00,meteohub,2013-07-18 14:35:00,
2013-07-18 10:40:00,88.0,73.8,30.12,SE,127,0.0,-999.0,63,-99.99,,,0.00,meteohub,2013-07-18 14:40:00,
2013-07-18 10:45:00,88.0,73.8,30.12,SSE,168,1.0,-999.0,63,-99.99,,,0.00,meteohub,2013-07-18 14:45:00,
2013-07-18 10:50:00,88.2,72.5,30.12,East,101,0.0,-999.0,60,-99.99,,,0.00,meteohub,2013-07-18 14:50:00,
2013-07-18 10:55:00,88.3,73.2,30.12,SW,218,0.0,-999.0,61,-99.99,,,0.00,meteohub,2013-07-18 14:55:00,
2013-07-18 11:00:00,88.5,74.8,30.12,WSW,250,0.0,-999.0,64,-99.99,,,0.00,meteohub,2013-07-18 15:00:00,
2013-07-18 11:05:00,88.5,75.2,30.12,ESE,112,4.0,-999.0,65,-99.99,,,0.00,meteohub,2013-07-18 15:05:00,
2013-07-18 11:10:00,88.5,75.2,30.12,SW,232,0.0,-999.0,65,-99.99,,,0.00,meteohub,2013-07-18 15:10:00,
2013-07-18 11:15:00,88.5,74.8,30.12,East,90,4.0,-999.0,64,-99.99,,,0.00,meteohub,2013-07-18 15:15:00,
2013-07-18 11:20:00,88.5,74.8,30.12,ESE,121,0.0,-999.0,64,-99.99,,,0.00,meteohub,2013-07-18 15:20:00,
2013-07-18 11:25:00,88.5,74.8,30.12,SW,224,3.0,-999.0,64,-99.99,,,0.00,meteohub,2013-07-18 15:25:00,
2013-07-18 11:30:00,88.3,73.2,30.12,SW,234,0.0,-999.0,61,-99.99,,,0.00,meteohub,2013-07-18 15:30:00,
2013-07-18 11:35:00,88.5,74.3,30.12,ENE,76,0.0,-999.0,63,-99.99,,,0.00,meteohub,2013-07-18 15:35:00,
2013-07-18 11:40:00,88.9,74.1,30.12,East,88,1.0,-999.0,62,-99.99,,,0.00,meteohub,2013-07-18 15:40:00,
2013-07-18 11:45:00,88.9,74.1,30.12,South,184,2.0,-999.0,62,-99.99,,,0.00,meteohub,2013-07-18 15:45:00,
2013-07-18 11:50:00,88.5,73.4,30.13,ENE,65,2.0,-999.0,61,-99.99,,,0.00,meteohub,2013-07-18 15:50:00,
2013-07-18 11:55:00,87.6,74.3,30.12,East,100,6.0,-999.0,65,-99.99,,,0.00,meteohub,2013-07-18 15:55:00,
2013-07-18 12:00:00,87.6,73.9,30.12,East,99,4.0,-999.0,64,-99.99,,,0.00,meteohub,2013-07-18 16:00:00,
2013-07-18 12:05:00,87.6,74.8,30.12,SE,142,0.0,-999.0,66,-99.99,,,0.00,meteohub,2013-07-18 16:05:00,
2013-07-18 12:10:00,88.0,75.6,30.12,WSW,242,3.0,-999.0,67,-99.99,,,0.00,meteohub,2013-07-18 16:10:00,
2013-07-18 12:15:00,88.0,76.1,30.12,East,87,0.0,-999.0,68,-99.99,,,0.00,meteohub,2013-07-18 16:15:00,
2013-07-18 12:20:00,88.0,75.6,30.12,SSW,194,2.0,-999.0,67,-99.99,,,0.00,meteohub,2013-07-18 16:20:00,
2013-07-18 12:25:00,87.6,74.8,30.12,East,85,3.0,-999.0,66,-99.99,,,0.00,meteohub,2013-07-18 16:25:00,
2013-07-18 12:30:00,87.6,73.9,30.12,ESE,103,4.0,-999.0,64,-99.99,,,0.00,meteohub,2013-07-18 16:30:00,
2013-07-18 12:35:00,88.0,74.3,30.12,ESE,109,0.0,-999.0,64,-99.99,,,0.00,meteohub,2013-07-18 16:35:00,
2013-07-18 12:40:00,88.2,72.5,30.12,West,265,3.0,-999.0,60,-99.99,,,0.00,meteohub,2013-07-18 16:40:00,
2013-07-18 12:45:00,88.5,74.3,30.13,NE,46,1.0,-999.0,63,-99.99,,,0.00,meteohub,2013-07-18 16:45:00,
2013-07-18 12:50:00,88.9,76.1,30.12,SE,127,6.0,-999.0,66,-99.99,,,0.00,meteohub,2013-07-18 16:50:00,
2013-07-18 12:55:00,88.9,72.1,30.12,SSW,200,0.0,-999.0,58,-99.99,,,0.00,meteohub,2013-07-18 16:55:00,
2013-07-18 13:00:00,89.1,72.9,30.12,ESE,118,4.0,-999.0,59,-99.99,,,0.00,meteohub,2013-07-18 17:00:00,
2013-07-18 13:05:00,88.9,72.1,30.12,NW,320,0.0,-999.0,58,-99.99,,,0.00,meteohub,2013-07-18 17:05:00,
2013-07-18 13:10:00,89.2,73.6,30.12,ESE,113,5.0,-999.0,60,-99.99,,,0.00,meteohub,2013-07-18 17:10:00,
2013-07-18 13:15:00,89.1,73.4,30.12,SE,132,0.0,-999.0,60,-99.99,,,0.00,meteohub,2013-07-18 17:15:00,
2013-07-18 13:20:00,89.2,73.0,30.12,WSW,250,1.0,-999.0,59,-99.99,,,0.00,meteohub,2013-07-18 17:20:00,
2013-07-18 13:25:00,89.6,72.3,30.12,SSW,211,0.0,-999.0,57,-99.99,,,0.00,meteohub,2013-07-18 17:25:00,
2013-07-18 13:30:00,90.0,73.2,30.12,SE,135,6.0,-999.0,58,-99.99,,,0.00,meteohub,2013-07-18 17:30:00,
2013-07-18 13:35:00,89.4,73.8,30.12,ESE,121,0.0,-999.0,60,-99.99,,,0.00,meteohub,2013-07-18 17:35:00,
2013-07-18 13:40:00,89.6,73.4,30.12,SSW,199,2.0,-999.0,59,-99.99,,,0.00,meteohub,2013-07-18 17:40:00,
2013-07-18 13:45:00,89.8,70.9,30.12,South,172,0.0,-999.0,54,-99.99,,,0.00,meteohub,2013-07-18 17:45:00,
2013-07-18 13:50:00,89.8,69.8,30.12,ESE,105,5.0,-999.0,52,-99.99,,,0.00,meteohub,2013-07-18 17:50:00,
2013-07-18 13:55:00,89.6,70.2,30.12,NW,325,0.0,-999.0,53,-99.99,,,0.00,meteohub,2013-07-18 17:55:00,
2013-07-18 14:00:00,89.6,74.8,30.11,NE,42,0.0,-999.0,62,-99.99,,,0.00,meteohub,2013-07-18 18:00:00,
2013-07-18 14:05:00,89.1,73.4,30.11,ENE,74,2.0,-999.0,60,-99.99,,,0.00,meteohub,2013-07-18 18:05:00,
2013-07-18 14:22:00,88.5,75.2,30.11,ENE,66,0.0,-999.0,65,-99.99,,,0.00,meteohub,2013-07-18 18:22:00,
2013-07-18 14:27:00,88.3,75.0,30.11,East,90,2.0,-999.0,65,-99.99,,,0.00,meteohub,2013-07-18 18:27:00,
2013-07-18 14:32:00,88.5,74.8,30.10,SW,223,0.0,-999.0,64,-99.99,,,0.00,meteohub,2013-07-18 18:32:00,
2013-07-18 14:37:00,88.5,75.7,30.10,East,98,5.0,-999.0,66,-99.99,,,0.00,meteohub,2013-07-18 18:37:00,
2013-07-18 14:42:00,88.5,75.2,30.10,SW,221,2.0,-999.0,65,-99.99,,,0.00,meteohub,2013-07-18 18:42:00,
2013-07-18 14:47:00,88.5,75.2,30.10,SW,215,1.0,-999.0,65,-99.99,,,0.00,meteohub,2013-07-18 18:47:00,
2013-07-18 14:52:00,88.9,75.6,30.09,SSE,150,0.0,-999.0,65,-99.99,,,0.00,meteohub,2013-07-18 18:52:00,
2013-07-18 14:57:00,89.2,75.4,30.09,ENE,76,0.0,-999.0,64,-99.99,,,0.00,meteohub,2013-07-18 18:57:00,
2013-07-18 15:02:00,88.9,74.1,30.09,ESE,105,0.0,-999.0,62,-99.99,,,0.00,meteohub,2013-07-18 19:02:00,
2013-07-18 15:07:00,88.5,73.8,30.09,SE,134,8.0,-999.0,62,-99.99,,,0.00,meteohub,2013-07-18 19:07:00,
2013-07-18 15:12:00,88.3,76.5,30.09,East,91,5.0,-999.0,68,-99.99,,,0.00,meteohub,2013-07-18 19:12:00,
2013-07-18 15:17:00,88.2,77.2,30.09,South,175,0.0,-999.0,70,-99.99,,,0.00,meteohub,2013-07-18 19:17:00,
2013-07-18 15:22:00,88.5,75.2,30.09,SW,236,3.0,-999.0,65,-99.99,,,0.00,meteohub,2013-07-18 19:22:00,
2013-07-18 15:27:00,88.9,74.1,30.09,SW,214,6.0,-999.0,62,-99.99,,,0.00,meteohub,2013-07-18 19:27:00,
2013-07-18 15:32:00,88.9,72.7,30.09,South,184,1.0,-999.0,59,-99.99,,,0.00,meteohub,2013-07-18 19:32:00,
2013-07-18 15:37:00,88.7,73.6,30.09,SW,214,3.0,-999.0,61,-99.99,,,0.00,meteohub,2013-07-18 19:37:00,
2013-07-18 15:42:00,88.7,75.0,30.08,South,177,4.0,-999.0,64,-99.99,,,0.00,meteohub,2013-07-18 19:42:00,
2013-07-18 15:47:00,88.7,73.9,30.09,South,190,2.0,-999.0,62,-99.99,,,0.00,meteohub,2013-07-18 19:47:00,
2013-07-18 15:52:00,88.9,75.2,30.09,SSW,197,8.0,-999.0,64,-99.99,,,0.00,meteohub,2013-07-18 19:52:00,
2013-07-18 15:57:00,88.7,73.6,30.08,SSW,198,9.0,-999.0,61,-99.99,,,0.00,meteohub,2013-07-18 19:57:00,
2013-07-18 16:02:00,88.9,74.7,30.09,ESE,109,2.0,-999.0,63,-99.99,,,0.00,meteohub,2013-07-18 20:02:00,
2013-07-18 16:07:00,88.5,73.8,30.08,ESE,123,8.0,-999.0,62,-99.99,,,0.00,meteohub,2013-07-18 20:07:00,
2013-07-18 16:12:00,88.3,75.0,30.08,East,86,0.0,-999.0,65,-99.99,,,0.00,meteohub,2013-07-18 20:12:00,
2013-07-18 16:17:00,88.2,74.5,30.08,SW,236,2.0,-999.0,64,-99.99,,,0.00,meteohub,2013-07-18 20:17:00,
2013-07-18 16:22:00,88.5,75.2,30.08,SSW,200,0.0,-999.0,65,-99.99,,,0.00,meteohub,2013-07-18 20:22:00,
2013-07-18 16:27:00,88.5,74.3,30.08,ENE,72,0.0,-999.0,63,-99.99,,,0.00,meteohub,2013-07-18 20:27:00,
2013-07-18 16:32:00,88.2,74.5,30.08,ENE,69,4.0,-999.0,64,-99.99,,,0.00,meteohub,2013-07-18 20:32:00,
2013-07-18 16:37:00,88.2,75.4,30.08,WSW,239,4.0,-999.0,66,-99.99,,,0.00,meteohub,2013-07-18 20:37:00,
2013-07-18 16:42:00,88.3,74.7,30.08,SW,234,0.0,-999.0,64,-99.99,,,0.00,meteohub,2013-07-18 20:42:00,
2013-07-18 16:47:00,88.2,73.9,30.07,SSE,164,0.0,-999.0,63,-99.99,,,0.00,meteohub,2013-07-18 20:47:00,
2013-07-18 16:52:00,88.3,75.0,30.07,SW,225,1.0,-999.0,65,-99.99,,,0.00,meteohub,2013-07-18 20:52:00,
2013-07-18 16:57:00,88.3,75.0,30.07,WSW,248,5.0,-999.0,65,-99.99,,,0.00,meteohub,2013-07-18 20:57:00,
2013-07-18 17:02:00,88.0,76.1,30.07,South,171,6.0,-999.0,68,-99.99,,,0.00,meteohub,2013-07-18 21:02:00,
2013-07-18 17:07:00,87.6,76.6,30.07,SW,217,1.0,-999.0,70,-99.99,,,0.00,meteohub,2013-07-18 21:07:00,
2013-07-18 17:12:00,87.8,75.9,30.07,West,261,2.0,-999.0,68,-99.99,,,0.00,meteohub,2013-07-18 21:12:00,
2013-07-18 17:17:00,87.6,74.8,30.07,SSW,198,5.0,-999.0,66,-99.99,,,0.00,meteohub,2013-07-18 21:17:00,
2013-07-18 17:22:00,87.4,75.6,30.07,SW,234,0.0,-999.0,68,-99.99,,,0.00,meteohub,2013-07-18 21:22:00,
2013-07-18 17:27:00,87.4,74.7,30.07,SW,217,5.0,-999.0,66,-99.99,,,0.00,meteohub,2013-07-18 21:27:00,
2013-07-18 17:32:00,87.6,76.6,30.06,NE,49,0.0,-999.0,70,-99.99,,,0.00,meteohub,2013-07-18 21:32:00,
2013-07-18 17:37:00,87.6,76.1,30.06,SSW,209,0.0,-999.0,69,-99.99,,,0.00,meteohub,2013-07-18 21:37:00,
2013-07-18 17:42:00,87.4,76.5,30.06,ENE,76,2.0,-999.0,70,-99.99,,,0.00,meteohub,2013-07-18 21:42:00,
2013-07-18 17:47:00,87.3,75.4,30.06,WSW,248,1.0,-999.0,68,-99.99,,,0.00,meteohub,2013-07-18 21:47:00,
2013-07-18 17:52:00,87.1,74.3,30.06,SSW,213,1.0,-999.0,66,-99.99,,,0.00,meteohub,2013-07-18 21:52:00,
2013-07-18 17:57:00,87.3,75.4,30.06,SSW,213,3.0,-999.0,68,-99.99,,,0.00,meteohub,2013-07-18 21:57:00,
2013-07-18 18:02:00,87.1,76.1,30.06,NNE,32,1.0,-999.0,70,-99.99,,,0.00,meteohub,2013-07-18 22:02:00,
2013-07-18 18:07:00,86.9,75.9,30.06,South,175,0.0,-999.0,70,-99.99,,,0.00,meteohub,2013-07-18 22:07:00,
2013-07-18 18:12:00,86.7,75.7,30.06,SE,124,0.0,-999.0,70,-99.99,,,0.00,meteohub,2013-07-18 22:12:00,
2013-07-18 18:17:00,86.7,76.1,30.06,SSW,204,3.0,-999.0,71,-99.99,,,0.00,meteohub,2013-07-18 22:17:00,
2013-07-18 18:22:00,86.5,75.6,30.06,East,82,3.0,-999.0,70,-99.99,,,0.00,meteohub,2013-07-18 22:22:00,
2013-07-18 18:27:00,86.4,75.0,30.06,SSW,209,2.0,-999.0,69,-99.99,,,0.00,meteohub,2013-07-18 22:27:00,
2013-07-18 18:32:00,86.2,75.2,30.06,SSW,192,0.0,-999.0,70,-99.99,,,0.00,meteohub,2013-07-18 22:32:00,
2013-07-18 18:37:00,86.4,75.0,30.06,SSW,207,5.0,-999.0,69,-99.99,,,0.00,meteohub,2013-07-18 22:37:00,
2013-07-18 18:42:00,86.2,74.8,30.06,South,174,8.0,-999.0,69,-99.99,,,0.00,meteohub,2013-07-18 22:42:00,
2013-07-18 18:47:00,85.8,75.4,30.06,North,350,0.0,-999.0,71,-99.99,,,0.00,meteohub,2013-07-18 22:47:00,
2013-07-18 18:52:00,85.6,75.6,30.06,ENE,66,0.0,-999.0,72,-99.99,,,0.00,meteohub,2013-07-18 22:52:00,
2013-07-18 18:57:00,85.6,75.9,30.06,SW,215,2.0,-999.0,73,-99.99,,,0.00,meteohub,2013-07-18 22:57:00,
2013-07-18 19:02:00,85.5,75.7,30.06,West,267,5.0,-999.0,73,-99.99,,,0.00,meteohub,2013-07-18 23:02:00,
2013-07-18 19:07:00,85.3,76.1,30.06,SSW,211,3.0,-999.0,74,-99.99,,,0.00,meteohub,2013-07-18 23:07:00,
2013-07-18 19:12:00,85.3,76.8,30.06,WSW,249,1.0,-999.0,76,-99.99,,,0.00,meteohub,2013-07-18 23:12:00,
2013-07-18 19:17:00,84.9,76.5,30.06,West,265,1.0,-999.0,76,-99.99,,,0.00,meteohub,2013-07-18 23:17:00,
2013-07-18 19:22:00,84.7,76.3,30.07,SSW,209,0.0,-999.0,76,-99.99,,,0.00,meteohub,2013-07-18 23:22:00,
2013-07-18 19:27:00,84.7,76.6,30.07,SW,224,0.0,-999.0,77,-99.99,,,0.00,meteohub,2013-07-18 23:27:00,
2013-07-18 19:32:00,84.4,76.5,30.06,South,187,4.0,-999.0,77,-99.99,,,0.00,meteohub,2013-07-18 23:32:00,
2013-07-18 19:37:00,84.2,77.0,30.07,SW,227,0.0,-999.0,79,-99.99,,,0.00,meteohub,2013-07-18 23:37:00,
2013-07-18 19:42:00,84.0,76.8,30.07,SSW,192,0.0,-999.0,79,-99.99,,,0.00,meteohub,2013-07-18 23:42:00,
2013-07-18 19:47:00,83.8,77.0,30.07,SSW,202,5.0,-999.0,80,-99.99,,,0.00,meteohub,2013-07-18 23:47:00,
2013-07-18 19:52:00,83.7,77.2,30.08,SSW,209,2.0,-999.0,81,-99.99,,,0.00,meteohub,2013-07-18 23:52:00,
2013-07-18 19:57:00,83.5,77.0,30.08,SW,221,0.0,-999.0,81,-99.99,,,0.00,meteohub,2013-07-18 23:57:00,
2013-07-18 20:02:00,83.1,76.6,30.08,South,191,1.0,-999.0,81,-99.99,,,0.00,meteohub,2013-07-19 00:02:00,
2013-07-18 20:07:00,82.9,76.5,30.07,South,183,0.0,-999.0,81,-99.99,,,0.00,meteohub,2013-07-19 00:07:00,
2013-07-18 20:12:00,82.9,76.8,30.07,SW,225,0.0,-999.0,82,-99.99,,,0.00,meteohub,2013-07-19 00:12:00,
2013-07-18 20:17:00,82.8,76.3,30.08,WSW,246,0.0,-999.0,81,-99.99,,,0.00,meteohub,2013-07-19 00:17:00,
2013-07-18 20:22:00,82.6,75.7,30.08,SW,215,1.0,-999.0,80,-99.99,,,0.00,meteohub,2013-07-19 00:22:00,
2013-07-18 20:27:00,82.6,75.4,30.08,WSW,257,1.0,-999.0,79,-99.99,,,0.00,meteohub,2013-07-19 00:27:00,
2013-07-18 20:32:00,82.6,75.4,30.08,SW,220,0.0,-999.0,79,-99.99,,,0.00,meteohub,2013-07-19 00:32:00,
2013-07-18 20:37:00,82.4,75.6,30.08,SW,217,0.0,-999.0,80,-99.99,,,0.00,meteohub,2013-07-19 00:37:00,
2013-07-18 20:42:00,82.2,75.4,30.08,SSW,213,0.0,-999.0,80,-99.99,,,0.00,meteohub,2013-07-19 00:42:00,
2013-07-18 20:47:00,82.2,75.7,30.08,SSW,194,0.0,-999.0,81,-99.99,,,0.00,meteohub,2013-07-19 00:47:00,
2013-07-18 20:52:00,82.0,75.6,30.08,SW,214,1.0,-999.0,81,-99.99,,,0.00,meteohub,2013-07-19 00:52:00,
2013-07-18 20:57:00,82.0,75.9,30.09,SW,215,1.0,-999.0,82,-99.99,,,0.00,meteohub,2013-07-19 00:57:00,
2013-07-18 21:02:00,81.9,76.1,30.09,SW,219,0.0,-999.0,83,-99.99,,,0.00,meteohub,2013-07-19 01:02:00,
2013-07-18 21:07:00,81.9,76.1,30.09,WSW,247,3.0,-999.0,83,-99.99,,,0.00,meteohub,2013-07-19 01:07:00,
2013-07-18 21:16:00,81.7,76.3,30.09,SSW,205,0.0,-999.0,84,-99.99,,,0.00,meteohub,2013-07-19 01:16:00,
2013-07-18 21:21:00,81.7,75.9,30.09,WSW,250,2.0,-999.0,83,-99.99,,,0.00,meteohub,2013-07-19 01:21:00,
2013-07-18 21:26:00,81.5,75.9,30.09,WSW,255,0.0,-999.0,83,-99.99,,,0.00,meteohub,2013-07-19 01:26:00,
2013-07-18 21:31:00,81.5,75.9,30.09,WSW,239,1.0,-999.0,83,-99.99,,,0.00,meteohub,2013-07-19 01:31:00,
2013-07-18 21:36:00,81.3,75.7,30.09,WNW,292,0.0,-999.0,83,-99.99,,,0.00,meteohub,2013-07-19 01:36:00,
2013-07-18 21:41:00,81.3,76.1,30.10,WSW,238,0.0,-999.0,84,-99.99,,,0.00,meteohub,2013-07-19 01:41:00,
2013-07-18 21:46:00,81.1,75.9,30.10,WSW,238,2.0,-999.0,84,-99.99,,,0.00,meteohub,2013-07-19 01:46:00,
2013-07-18 21:51:00,81.1,75.9,30.10,SW,214,0.0,-999.0,84,-99.99,,,0.00,meteohub,2013-07-19 01:51:00,
2013-07-18 21:56:00,81.1,75.9,30.10,SW,219,3.0,-999.0,84,-99.99,,,0.00,meteohub,2013-07-19 01:56:00,
2013-07-18 22:01:00,81.0,75.7,30.10,SW,221,0.0,-999.0,84,-99.99,,,0.00,meteohub,2013-07-19 02:01:00,
2013-07-18 22:06:00,81.0,75.7,30.10,WSW,238,0.0,-999.0,84,-99.99,,,0.00,meteohub,2013-07-19 02:06:00,
2013-07-18 22:11:00,81.0,76.1,30.10,SSW,211,0.0,-999.0,85,-99.99,,,0.00,meteohub,2013-07-19 02:11:00,
2013-07-18 22:16:00,80.8,75.9,30.10,SSW,211,0.0,-999.0,85,-99.99,,,0.00,meteohub,2013-07-19 02:16:00,
2013-07-18 22:21:00,80.8,75.9,30.11,SSW,205,0.0,-999.0,85,-99.99,,,0.00,meteohub,2013-07-19 02:21:00,
2013-07-18 22:26:00,80.6,75.7,30.11,West,271,0.0,-999.0,85,-99.99,,,0.00,meteohub,2013-07-19 02:26:00,
2013-07-18 22:31:00,80.4,75.9,30.11,WSW,244,0.0,-999.0,86,-99.99,,,0.00,meteohub,2013-07-19 02:31:00,
2013-07-18 22:36:00,80.4,75.9,30.11,SW,220,0.0,-999.0,86,-99.99,,,0.00,meteohub,2013-07-19 02:36:00,
2013-07-18 22:41:00,80.4,75.9,30.11,SW,220,0.0,-999.0,86,-99.99,,,0.00,meteohub,2013-07-19 02:41:00,
2013-07-18 22:46:00,80.2,75.7,30.11,SW,220,0.0,-999.0,86,-99.99,,,0.00,meteohub,2013-07-19 02:46:00,
2013-07-18 22:51:00,80.2,75.7,30.11,SW,220,0.0,-999.0,86,-99.99,,,0.00,meteohub,2013-07-19 02:51:00,
2013-07-18 22:56:00,80.1,75.9,30.11,SW,220,0.0,-999.0,87,-99.99,,,0.00,meteohub,2013-07-19 02:56:00,
2013-07-18 23:01:00,80.1,75.9,30.11,SW,220,0.0,-999.0,87,-99.99,,,0.00,meteohub,2013-07-19 03:01:00,
2013-07-18 23:06:00,80.1,75.9,30.11,SW,220,0.0,-999.0,87,-99.99,,,0.00,meteohub,2013-07-19 03:06:00,
2013-07-18 23:11:00,79.9,75.7,30.11,SW,220,0.0,-999.0,87,-99.99,,,0.00,meteohub,2013-07-19 03:11:00,
2013-07-18 23:16:00,79.9,75.7,30.11,SW,220,0.0,-999.0,87,-99.99,,,0.00,meteohub,2013-07-19 03:16:00,
2013-07-18 23:21:00,79.9,75.9,30.11,SW,220,0.0,-999.0,88,-99.99,,,0.00,meteohub,2013-07-19 03:21:00,
2013-07-18 23:26:00,79.9,75.9,30.11,SW,220,0.0,-999.0,88,-99.99,,,0.00,meteohub,2013-07-19 03:26:00,
2013-07-18 23:31:00,79.9,75.9,30.11,SW,220,0.0,-999.0,88,-99.99,,,0.00,meteohub,2013-07-19 03:31:00,
2013-07-18 23:36:00,79.7,75.7,30.11,SW,220,0.0,-999.0,88,-99.99,,,0.00,meteohub,2013-07-19 03:36:00,
2013-07-18 23:41:00,79.5,75.6,30.11,SW,220,0.0,-999.0,88,-99.99,,,0.00,meteohub,2013-07-19 03:41:00,
2013-07-18 23:46:00,79.5,75.6,30.11,SW,220,0.0,-999.0,88,-99.99,,,0.00,meteohub,2013-07-19 03:46:00,
2013-07-18 23:51:00,79.5,75.6,30.11,SW,220,0.0,-999.0,88,-99.99,,,0.00,meteohub,2013-07-19 03:51:00,
2013-07-18 23:56:00,79.3,75.7,30.11,SW,220,0.0,-999.0,89,-99.99,,,0.00,meteohub,2013-07-19 03:56:00,